Regional Weather Roundup
Issued by NWS

Home | Current Version | Previous Version | Text Only | Print | Product List | Glossary On
Versions: 1 2 3 4 5 6 7 8 9 10 11 12 13 14 15 16 17 18 19 20 21 22 23 24 25 26 27 28 29 30 31 32 33 34 35 36 37 38 39 40 41 42 43 44 45 46 47
000
ASUS42 KKEY 020210
RWRKEY

FLORIDA KEYS REGIONAL WEATHER ROUNDUP
NATIONAL WEATHER SERVICE KEY WEST FLORIDA
1000 PM EDT MON JUN 01 2020

...SOUTH FLORIDA AND THE KEYS...

CITY           SKY/WX    TMP DP  RH WIND       PRES   REMARKS
FORT MYERS     MOCLDY    80  74  81 E7        30.07R
SW REGIONAL AP FAIR      80  73  79 E7        30.08R
NAPLES         FAIR      80  76  87 CALM      30.07R
MIAMI          CLOUDY    83  73  72 E13       30.08R
WEST KENDALL   FAIR      83  73  72 E10       30.07R
HOMESTEAD      FAIR      82  73  72 E9        30.06R
MARATHON       FAIR      84  75  74 E8        30.05R HX  92
BOCA CHICA NAS FAIR      86  76  71 E14       30.05R HX  96
KEY WEST INTL  FAIR      85  74  69 SE14      30.06R HX  92

...INTERNATIONAL WEATHER...

CITY           SKY/WX    TMP DP  RH WIND       PRES   REMARKS
NASSAU         MOCLDY    81  72  74 E7        30.09R
HAVANA         PTCLDY    77  77 100 SW2       30.03S
VARADERO       MOCLDY    73  73 100 SE6       30.06R
CANCUN         CLOUDY    84  77  79 E10       29.93R HX  94
COZUMEL        MOCLDY    82  79  89 SE9       29.90R HX  93
KINGSTON       PTCLDY    84  73  70 E5        29.97R HX  91

...ADJACENT COASTAL WATERS...

STATION/POSITION TIME  SKY/WX   TEMP    WIND        PRES    WAVE
                                AIR SEA DIR/SP/G            HT/PER
                 (UTC)          (F)     (DEG/KT/KT) (MB)    (FT/S)
PULASKI SHOAL LI NOT AVBL
SAND KEY         NOT AVBL
SOMBRERO KEY     0150            83     100/ 13/ 15   N/A
LONG KEY         NOT AVBL
MOLASSES REEF    NOT AVBL
FOWEY ROCKS      0100            82 83   90/ 14/ 16 1017.9R
Buoy 42095       0130               84                N/A     2/ 3
Buoy 42097       0130               83                N/A     1/ 3

$$



USA.gov is the U.S. government's official web portal to all federal, state and local government web resources and services.